Home > Weather > Ennepetal > Past weeks

Flag for Germany Past Weather in Ennepetal, North Rhine-Westphalia, Germany — Yesterday and Last 2 Weeks

Now
79 °F

Passing clouds.


Feels Like: 80 °F
Forecast: 63 / 84 °F
Wind: 7 mph from Northeast

Location: Dortmund / Wickede

Current Time: Aug 27, 2016 at 1:54:08 PM

Latest Report: Aug 27, 2016 at 12:50 PM


Visibility: N/A

Pressure: 30.09 "Hg

Humidity: 51%

Dew Point: 59 °F

Location of EnnepetalLocation

Past Weather in Ennepetal — Graph

°F

Ennepetal Temperature Yesterday

Maximum temperature yesterday: 91 °F (at 3:20 PM)
Minimum temperature yesterday: 70 °F (at 5:20 AM)
Average temperature yesterday: 82 °F

High & Low Weather Summary for the Past Weeks

 TemperatureHumidityPressure
High91 °F (Aug 25, 3:50 PM)88% (Aug 12, 12:20 PM)30.36 "Hg (Aug 12, 12:20 PM)
Low48 °F (Aug 16, 6:20 AM)16% (Aug 25, 3:50 PM)29.80 "Hg (Aug 18, 2:50 PM)
Average69 °F56%30.08 "Hg
* Reported Aug 12 12:20 PM — Aug 27 12:20 PM, Ennepetal, Weather by CustomWeather, © 2016

Note: Actual official high and low records may vary slightly from our data, if they occured in-between our weather recording intervals... More about our weather records

Advertising

Ennepetal Weather History for the Previous 24 Hours

Scroll right to see more
 ConditionsComfort  
Time TempWeatherWind HumidityBarometerVisibility
12:20 PM
Sat, Aug 27
79 °FPassing clouds.6 mph54%30.09 "HgN/A
11:50 AM75 °FPassing clouds.6 mph57%30.09 "HgN/A
11:20 AM73 °FPassing clouds.6 mph57%30.09 "HgN/A
10:50 AM72 °FPassing clouds.7 mph61%30.09 "HgN/A
10:20 AM70 °FPassing clouds.8 mph64%30.09 "HgN/A
9:50 AM70 °FPassing clouds.6 mph64%30.12 "HgN/A
9:20 AM68 °FPassing clouds.7 mph64%30.12 "HgN/A
8:50 AM66 °FPassing clouds.6 mph68%30.12 "HgN/A
8:20 AM64 °FPassing clouds.6 mph73%30.12 "HgN/A
7:50 AM63 °FSunny.5 mph77%30.12 "Hg10 mi
7:20 AM63 °FClear.5 mph77%30.09 "Hg10 mi
6:50 AM61 °FClear.5 mph83%30.09 "Hg10 mi
6:20 AM63 °FClear.3 mph77%30.09 "Hg10 mi
5:50 AM63 °FClear.3 mph77%30.09 "Hg10 mi
5:20 AM64 °FClear.3 mph73%30.09 "Hg10 mi
9:50 PM
Fri, Aug 26
75 °FClear.7 mph65%30.07 "Hg10 mi
9:20 PM77 °FSunny.6 mph61%30.07 "Hg10 mi
8:50 PM77 °FSunny.6 mph61%30.07 "Hg10 mi
8:20 PM79 °FSunny.5 mph54%30.04 "Hg10 mi
7:50 PM82 °FSunny.7 mph51%30.04 "Hg10 mi
7:20 PM84 °FPassing clouds.5 mph48%30.04 "HgN/A
6:50 PM84 °FPassing clouds.7 mph48%30.04 "HgN/A
6:20 PM88 °FPassing clouds.6 mph40%30.04 "HgN/A
5:50 PM88 °FSunny.6 mph40%30.04 "Hg10 mi
5:20 PM90 °FPassing clouds.6 mph38%30.04 "HgN/A
4:50 PM90 °FPassing clouds.6 mph36%30.01 "HgN/A
4:20 PM90 °FSunny.6 mph31%30.04 "Hg10 mi
3:50 PM91 °FPassing clouds.6 mph30%30.01 "HgN/A
3:20 PM91 °FSunny.5 mph32%30.01 "Hg10 mi
2:50 PM90 °FSunny.5 mph33%30.01 "Hg10 mi
2:20 PM90 °FPassing clouds.6 mph33%30.01 "HgN/A
1:50 PM90 °FPassing clouds.6 mph31%30.01 "HgN/A
1:20 PM90 °FPassing clouds.6 mph31%30.01 "HgN/A
Weather by CustomWeather, © 2016

See weather overviewHow to use our weather pages